LEMD Weather Reports


Display with metric or nautical units.
time (UTC)temp
F
wind
direction
speed
MPH
gust
MPH
rain 1hr
in
rain 24hr
in
rain mn
in
humidity
%
barometer
mb
20260831011504 73 0 2.0 0.0 0.00 0.00 0.00 40 1019.0
20260831004503 72 80 2.0 0.0 0.00 0.00 0.00 43 1019.0
20260831000004 75 70 2.0 0.0 0.00 0.00 0.00 38 1019.0
20260830234504 75 70 2.0 0.0 0.00 0.00 0.00 38 1019.0
20260830231503 77 40 1.0 0.0 0.00 0.00 0.00 36 1018.0
20260830224504 77 350 3.0 0.0 0.00 0.00 0.00 33 1018.0
20260830221503 79 0 2.0 0.0 0.00 0.00 0.00 34 1018.0
20260830220004 81 230 5.0 0.0 0.00 0.00 0.00 32 1018.0
20260830213003 82 240 7.0 0.0 0.00 0.00 0.00 28 1018.0
20260830211503 82 240 7.0 0.0 0.00 0.00 0.00 28 1018.0
20260830210004 84 230 9.0 0.0 0.00 0.00 0.00 25 1017.0
20260830203004 86 240 12.0 0.0 0.00 0.00 0.00 22 1017.0
20260830201503 86 240 12.0 0.0 0.00 0.00 0.00 22 1017.0
20260830194503 86 240 13.0 0.0 0.00 0.00 0.00 22 1017.0
20260830190004 90 220 15.0 0.0 0.00 0.00 0.00 18 1017.0
20260830183003 90 230 15.0 0.0 0.00 0.00 0.00 19 1016.0
20260830181503 90 230 15.0 0.0 0.00 0.00 0.00 19 1016.0
20260830173003 91 210 14.0 0.0 0.00 0.00 0.00 17 1016.0
20260830171504 91 210 14.0 0.0 0.00 0.00 0.00 17 1016.0
20260830170004 91 220 13.0 0.0 0.00 0.00 0.00 18 1017.0
20260830161503 91 220 15.0 0.0 0.00 0.00 0.00 18 1017.0
20260830153003 91 240 12.0 0.0 0.00 0.00 0.00 19 1017.0
20260830144503 90 250 12.0 0.0 0.00 0.00 0.00 21 1018.0
20260830143004 88 210 14.0 0.0 0.00 0.00 0.00 23 1018.0
20260830141503 88 210 14.0 0.0 0.00 0.00 0.00 23 1018.0
20260830140004 88 220 1.0 0.0 0.00 0.00 0.00 23 1018.0
20260830130004 86 220 8.0 0.0 0.00 0.00 0.00 23 1019.0
20260830123003 84 230 1.0 0.0 0.00 0.00 0.00 25 1019.0
20260830120003 84 180 6.0 0.0 0.00 0.00 0.00 25 1019.0
20260830113004 81 180 5.0 0.0 0.00 0.00 0.00 28 1019.0
20260830103003 77 200 2.0 0.0 0.00 0.00 0.00 27 1020.0
20260830094503 73 0 2.0 0.0 0.00 0.00 0.00 31 1020.0
20260830091503 70 0 1.0 0.0 0.00 0.00 0.00 35 1020.0
20260830084504 68 0 1.0 0.0 0.00 0.00 0.00 40 1020.0
20260830083003 64 0 2.0 0.0 0.00 0.00 0.00 45 1020.0
20260830074503 61 0 2.0 0.0 0.00 0.00 0.00 48 1019.0
20260830070004 57 10 5.0 0.0 0.00 0.00 0.00 54 1019.0
20260830063003 57 0 1.0 0.0 0.00 0.00 0.00 54 1019.0
20260830053003 59 0 1.0 0.0 0.00 0.00 0.00 51 1019.0
20260830051504 59 0 1.0 0.0 0.00 0.00 0.00 51 1019.0
20260830050003 59 350 1.0 0.0 0.00 0.00 0.00 54 1019.0
20260830044503 59 350 1.0 0.0 0.00 0.00 0.00 54 1019.0
20260830043004 61 360 2.0 0.0 0.00 0.00 0.00 48 1019.0
20260830034503 61 0 2.0 0.0 0.00 0.00 0.00 48 1019.0
20260830033003 61 0 2.0 0.0 0.00 0.00 0.00 48 1019.0
20260830031503 61 0 2.0 0.0 0.00 0.00 0.00 48 1019.0
20260830030003 63 350 2.0 0.0 0.00 0.00 0.00 45 1019.0
20260830024503 63 350 2.0 0.0 0.00 0.00 0.00 45 1019.0
20260830021503 63 350 2.0 0.0 0.00 0.00 0.00 45 1019.0
20260830020003 64 10 3.0 0.0 0.00 0.00 0.00 42 1019.0